ECMWFFLT1_250_spd_000.txt.gz
Wind_Speed
32 33 35 36 36 36 36 37 38 39 39 40 41 41 42 42 43 44 45 46 46 47 47 47 47 48 48 48 48 48 47 47 46 46 47 47 47 47 48 48 48 48 48 49 49 50 52 53 54 54 54 52 51 49 48 48 48 47 47 48 49 51 53
34 35 36 37 37 38 38 39 39 40 41 42 42 43 44 44 44 45 47 47 48 48 48 49 49 49 49 49 49 49 49 48 47 47 47 47 47 47 48 48 48 49 49 49 50 52 53 55 56 57 57 56 55 53 51 49 49 49 49 49 49 51 52
36 37 38 38 39 39 40 41 41 42 43 44 44 45 46 45 45 46 48 49 49 49 50 50 50 50 50 50 50 50 50 49 48 48 48 48 48 48 48 48 49 49 50 50 51 53 55 57 58 59 60 60 58 56 54 52 51 50 50 49 49 50 52
39 39 40 41 41 41 42 42 43 44 45 46 47 47 48 47 47 48 49 51 51 51 51 51 51 51 51 51 50 50 50 50 50 49 49 49 49 49 49 49 49 49 50 51 52 54 57 59 60 61 62 62 61 59 57 55 53 52 51 50 49 49 50
42 42 42 43 43 43 44 44 45 46 47 48 48 49 50 49 48 49 51 53 53 52 52 53 53 53 53 52 52 51 51 51 50 50 50 50 50 51 51 51 51 50 50 51 53 56 58 61 62 63 63 63 63 62 60 58 56 54 53 51 49 48 49
44 44 45 45 45 45 46 46 47 48 49 49 50 51 51 51 50 51 53 55 55 54 54 54 54 54 54 53 53 53 52 52 52 51 51 51 51 52 52 52 51 51 51 52 54 57 60 62 64 64 64 64 64 63 62 60 59 57 55 53 50 49 49
47 47 47 47 47 47 48 48 49 50 51 51 52 53 53 53 52 53 55 57 57 56 56 56 56 55 54 54 54 53 53 53 53 52 52 52 52 53 53 52 52 52 53 54 56 59 61 63 65 66 66 65 65 64 63 62 61 59 57 55 53 50 49
49 50 49 49 49 49 49 50 51 52 52 53 54 55 55 55 55 56 57 58 58 57 57 57 56 56 55 55 55 54 54 54 54 53 53 53 53 53 53 53 53 53 55 57 59 61 63 65 66 66 66 65 65 64 64 64 63 62 60 58 56 52 50
51 51 51 51 51 51 51 52 52 53 54 55 56 57 57 57 57 58 59 59 59 59 59 58 57 56 56 56 56 55 55 55 55 54 54 54 54 54 53 53 54 55 57 60 61 63 64 65 66 66 66 65 65 65 64 64 64 63 62 61 58 55 52
52 52 53 53 53 53 53 53 54 55 56 57 58 59 59 59 59 60 60 59 60 60 60 59 57 57 57 57 57 56 56 56 56 56 55 55 55 55 54 54 55 57 59 62 64 65 66 66 66 67 66 66 65 65 64 64 64 63 63 61 60 57 54
53 53 54 54 54 54 54 54 55 57 58 59 60 61 61 61 61 61 60 60 61 61 61 60 58 58 57 58 57 57 57 57 57 57 56 56 56 56 55 55 56 59 61 64 66 67 67 67 67 67 67 66 66 66 65 64 64 64 64 62 60 58 55
54 55 55 55 55 55 55 56 57 58 60 61 62 63 63 63 62 62 61 61 62 62 61 60 59 58 58 58 58 58 57 57 57 57 56 56 57 57 57 57 58 61 63 65 67 68 68 68 68 68 68 67 67 67 66 66 65 64 65 63 60 58 56
55 56 57 57 56 56 56 57 59 60 62 63 64 65 65 64 64 63 63 63 63 63 62 61 59 59 58 58 58 58 58 58 57 56 56 56 57 57 58 59 60 63 65 66 68 69 70 70 70 70 70 69 68 68 68 67 66 65 65 64 61 58 55
57 58 59 59 59 59 59 60 61 62 64 65 66 66 66 66 65 65 64 64 65 64 63 62 60 59 59 59 59 59 59 58 57 56 56 57 57 58 59 61 63 65 67 69 70 72 73 73 74 74 73 72 71 69 69 68 67 67 66 65 62 58 53
60 60 61 61 61 61 62 62 63 65 66 67 68 68 68 68 67 67 66 66 66 65 64 63 61 60 60 59 59 59 59 58 57 57 57 57 58 59 61 62 65 67 69 71 73 74 76 77 77 78 77 75 74 72 70 69 69 69 68 65 62 57 52
63 63 63 63 63 63 64 65 66 67 68 69 70 71 70 70 69 68 67 68 68 66 66 65 63 62 61 60 60 59 59 58 58 58 57 58 59 61 63 65 67 68 70 73 75 77 79 80 80 81 81 79 77 75 73 71 70 69 68 65 60 56 51
66 66 66 66 66 66 66 67 68 69 71 72 72 73 72 72 70 68 69 70 69 68 67 66 65 64 62 61 60 60 59 60 60 59 59 59 61 63 65 67 68 70 72 75 77 79 81 82 83 84 84 83 81 78 75 73 72 70 68 62 57 53 48
67 67 68 68 68 68 69 70 71 71 72 73 74 74 74 73 71 70 71 71 70 69 68 68 67 65 63 62 61 60 60 60 60 60 60 60 62 66 68 68 69 71 74 77 79 82 83 84 85 85 86 85 84 81 77 74 73 71 66 59 54 50 45
68 68 69 70 71 71 72 72 73 74 75 75 76 76 75 74 73 72 72 72 71 70 69 68 68 66 65 63 62 61 61 61 61 61 61 62 64 67 68 69 71 73 75 79 81 83 84 85 86 87 87 87 85 83 79 75 73 70 64 57 51 46 41
69 69 70 72 73 73 74 75 75 76 77 77 77 77 76 75 74 74 74 73 72 70 69 69 69 67 66 64 63 63 62 62 62 62 63 64 66 67 68 69 72 74 77 80 83 84 86 87 88 88 89 88 86 83 79 76 73 67 61 54 48 43 38
70 71 72 73 74 76 76 77 77 78 78 78 78 78 77 77 76 76 75 74 73 71 70 70 69 68 67 65 64 63 63 62 63 63 65 66 67 68 69 70 73 76 79 81 84 85 87 89 90 90 90 89 86 83 79 75 70 64 57 51 46 40 35
71 72 73 74 76 77 78 79 79 79 80 80 80 79 79 78 78 78 77 76 74 73 72 71 69 68 67 66 65 64 63 63 64 65 66 67 68 69 71 72 74 77 81 83 85 86 88 89 90 90 90 90 88 83 78 73 67 60 53 48 44 38 33
73 74 75 76 78 79 80 81 81 81 81 82 82 81 81 80 80 79 79 77 75 74 73 71 69 69 68 67 65 64 64 64 64 65 66 67 69 71 73 74 77 79 82 85 87 87 88 89 90 90 90 90 87 83 77 70 64 57 50 46 41 35 31
75 76 77 79 79 80 81 82 83 83 83 83 83 83 82 82 81 80 80 79 77 76 74 72 70 69 69 68 66 65 64 64 64 65 67 69 71 73 75 77 79 82 84 87 89 89 89 90 90 90 90 89 87 82 75 67 61 54 48 44 39 33 30
77 78 80 81 82 82 83 84 84 85 85 85 85 84 84 83 82 82 81 80 79 77 75 73 71 70 70 68 66 65 64 65 65 66 69 71 73 76 78 80 82 84 86 89 90 91 91 90 90 89 89 87 84 79 71 63 57 51 45 41 37 32 30
80 81 82 84 84 85 85 85 85 86 86 87 86 86 86 85 84 83 82 81 81 78 76 73 71 71 70 69 67 65 65 66 67 69 71 73 75 78 81 83 85 86 88 91 92 92 91 90 89 87 86 82 79 74 67 58 52 47 43 38 35 31 29
83 83 85 86 87 87 87 87 87 87 87 88 87 87 87 86 84 83 82 81 80 79 76 73 72 71 71 70 67 66 67 68 69 71 73 75 78 80 82 85 86 88 89 91 93 92 91 90 88 86 82 77 72 67 61 54 48 44 39 35 33 31 30
84 85 86 88 89 89 88 88 88 88 88 88 88 88 88 87 86 84 82 80 79 78 75 74 72 71 70 70 69 69 70 71 72 73 75 77 79 82 84 87 88 89 90 92 92 92 91 89 87 83 78 73 67 60 55 49 45 40 36 33 31 30 30
86 87 88 89 90 90 90 89 89 89 89 89 89 89 89 88 86 84 82 80 78 76 74 73 71 70 70 71 71 72 72 73 75 76 78 79 81 83 86 88 90 91 92 92 92 91 90 88 84 79 73 67 61 55 49 43 39 36 32 29 30 30 31
88 88 89 90 91 91 90 90 90 90 90 90 90 90 89 88 86 84 82 80 78 76 74 72 71 71 71 72 72 73 74 76 78 79 81 82 84 86 88 90 92 93 93 93 92 90 88 84 79 74 68 62 55 50 44 39 36 34 30 27 28 30 32
89 90 91 91 92 92 92 92 92 92 91 91 91 90 89 88 86 84 82 80 78 76 74 73 72 72 72 73 74 75 77 79 80 82 84 85 87 88 90 92 94 95 94 93 91 88 85 80 74 69 64 56 49 45 40 34 31 30 28 27 28 31 34
91 92 92 93 93 93 93 93 93 92 92 92 91 90 89 88 86 84 82 79 77 76 75 74 75 75 75 76 77 78 80 83 84 86 87 88 89 90 91 92 94 94 94 92 89 86 81 75 68 63 58 51 44 41 36 30 26 27 27 28 29 31 35
92 93 94 95 95 94 94 93 93 93 92 92 90 89 88 87 86 84 80 76 75 75 75 76 76 78 78 79 80 82 84 86 87 89 90 91 92 92 92 93 94 93 93 91 87 81 76 70 63 58 53 46 41 37 32 27 26 28 28 27 29 33 37
94 95 96 96 96 95 94 94 94 94 93 91 90 89 88 86 84 82 78 75 75 76 77 78 79 80 81 82 84 85 87 89 90 91 92 93 94 94 93 93 92 91 91 88 82 75 70 64 57 53 48 41 36 33 29 25 24 26 27 27 29 34 39
95 96 96 96 95 95 96 96 96 94 92 91 89 88 86 84 82 79 77 76 76 77 78 80 81 83 84 85 87 88 90 91 92 93 94 94 95 95 93 92 91 89 87 84 78 71 65 57 51 47 43 37 32 28 26 25 24 24 25 26 29 35 41
96 96 96 96 96 96 97 97 95 93 91 89 87 85 83 81 80 78 77 78 78 79 80 82 84 86 87 88 90 91 92 93 94 95 96 96 95 95 93 91 90 87 83 80 74 65 56 49 44 42 38 34 29 25 23 24 24 23 24 25 28 36 44
97 98 98 98 98 97 96 95 94 92 89 87 84 82 80 79 78 78 79 80 81 82 83 84 86 88 89 90 92 93 94 95 95 95 96 96 95 94 91 89 87 82 76 73 66 56 47 41 38 36 34 31 27 24 22 23 24 23 23 25 28 36 46
98 99 99 99 99 97 96 94 91 89 86 83 81 79 79 78 79 80 82 83 84 85 86 87 88 90 91 92 93 94 95 96 96 96 95 95 94 92 90 86 81 75 68 63 56 49 43 37 34 33 31 28 26 24 23 23 24 23 23 24 27 35 46

ECMWFFLT1_250_spd_003.txt.gz
Wind_Speed
28 29 29 30 32 34 35 35 32 32 36 40 44 45 40 40 47 49 48 48 49 50 51 51 51 50 49 50 49 49 48 49 49 49 49 49 49 48 48 48 48 48 48 47 47 46 46 45 45 44 44 44 44 44 45 46 46 47 48 49 49 50 49
29 30 29 29 31 34 36 37 34 31 33 37 42 46 41 40 47 51 50 50 50 51 52 52 53 52 51 51 51 50 49 50 50 50 49 49 49 49 49 49 49 49 48 48 47 47 46 46 45 45 45 44 44 45 46 47 48 49 50 51 52 51 51
32 32 32 30 30 33 36 38 36 32 30 32 40 45 41 41 48 51 51 51 51 52 53 53 54 54 53 53 52 52 52 52 51 50 50 49 49 49 49 49 49 48 48 48 47 47 46 46 46 46 45 44 44 45 47 48 50 51 52 52 53 53 52
32 33 34 33 33 34 36 37 37 32 28 30 39 44 39 41 49 53 52 52 53 53 54 55 56 56 55 55 53 53 54 54 53 52 51 50 49 49 49 49 48 48 47 47 47 46 46 45 46 46 45 44 44 46 47 49 51 53 54 54 54 54 53
32 33 34 35 36 37 37 37 37 33 27 29 38 45 43 44 51 53 53 54 54 54 55 56 57 58 57 56 55 55 55 55 55 54 53 51 50 50 51 50 49 48 47 47 46 46 45 45 45 45 45 45 45 47 49 50 52 55 56 57 57 57 55
34 33 34 36 38 39 38 36 37 36 32 32 41 48 46 44 50 54 54 55 55 56 57 57 59 60 59 58 57 57 57 57 57 56 54 53 52 51 51 51 50 49 48 48 47 46 46 46 46 46 46 46 47 50 52 53 54 57 59 60 61 61 59
37 36 36 37 38 40 40 39 40 41 38 38 44 49 45 42 50 55 56 56 57 58 59 59 61 62 61 60 59 59 59 59 59 58 57 55 53 52 52 52 51 51 50 49 48 47 47 46 47 47 48 49 50 53 55 57 58 60 61 63 64 64 62
39 40 40 39 40 41 42 43 44 43 42 43 47 49 47 46 52 56 56 57 59 59 60 61 63 65 64 63 62 62 61 61 61 60 59 57 55 54 53 52 52 53 52 51 49 49 49 48 49 49 50 51 53 55 58 60 62 63 64 65 66 65 63
41 42 43 42 42 43 45 46 45 45 46 48 50 52 52 52 55 57 58 59 60 61 62 63 64 66 66 65 64 64 64 64 63 63 61 59 58 56 54 52 52 52 53 53 52 50 50 51 51 52 53 54 56 58 61 63 64 66 66 68 67 64 62
45 46 46 45 45 46 47 47 46 48 51 52 53 55 55 56 57 59 60 61 62 63 64 65 66 67 67 66 66 66 67 66 66 65 63 62 60 58 57 55 53 53 53 54 55 54 53 53 54 54 55 57 59 60 62 64 66 68 69 70 68 64 62
48 48 48 47 47 48 50 50 50 52 53 54 56 56 57 58 59 60 62 63 63 65 65 67 68 69 68 68 68 68 69 69 68 66 65 64 63 61 59 57 55 54 54 54 56 56 56 56 57 57 58 59 61 63 64 65 65 68 71 73 72 68 64
49 51 51 50 50 51 52 52 53 54 55 56 57 57 59 60 60 62 64 64 67 67 66 67 70 70 70 69 69 70 70 70 70 68 66 65 64 63 62 60 57 56 56 56 57 57 58 58 59 60 61 62 63 65 66 67 66 66 68 73 77 76 69
49 51 53 53 53 54 54 55 55 56 57 58 59 60 61 61 63 64 64 67 69 65 63 69 72 71 71 72 71 72 72 71 71 70 68 66 65 64 63 61 59 58 58 58 59 59 59 59 60 61 62 64 65 66 68 69 69 68 67 69 75 78 74
49 49 51 55 57 56 57 58 58 58 59 60 61 62 62 64 65 65 67 69 66 60 64 72 75 73 73 74 73 74 74 73 72 71 70 68 67 66 65 62 60 59 59 59 60 60 60 60 61 62 64 65 66 68 69 71 72 72 70 70 72 75 74
52 50 51 54 57 58 59 60 60 61 61 61 63 64 65 66 66 67 69 65 59 63 71 75 74 75 76 76 76 76 75 75 74 73 71 70 68 68 66 64 62 61 60 60 61 61 61 61 62 63 65 66 67 69 71 73 75 75 74 74 74 73 72
55 54 53 54 57 60 62 62 62 63 63 63 65 65 67 68 67 70 69 59 58 69 76 75 75 77 77 78 78 77 77 76 75 74 73 71 70 69 68 66 64 62 61 61 61 61 61 62 63 64 66 67 68 70 72 75 77 77 77 77 76 74 71
59 58 58 58 61 64 64 63 64 65 65 66 66 67 68 69 70 70 64 58 65 75 76 76 77 78 78 80 79 78 78 78 76 76 75 73 72 71 69 67 65 63 62 61 61 62 62 63 64 65 67 68 70 72 73 77 80 80 79 80 79 76 73
62 63 63 63 64 66 66 66 67 67 68 69 68 69 70 70 71 67 59 61 73 78 76 77 78 78 80 80 78 79 80 79 78 77 76 74 74 73 71 68 66 64 63 62 62 62 63 64 65 66 67 70 72 74 76 78 80 81 81 82 80 78 74
65 66 66 66 67 68 68 69 69 69 70 71 70 72 72 72 72 67 60 65 77 79 77 78 79 79 81 79 78 81 82 80 80 78 76 76 75 74 71 69 67 65 64 63 63 63 64 64 65 66 69 72 74 77 79 79 79 81 83 83 80 77 73
66 67 68 68 68 69 70 71 71 71 72 73 73 75 75 75 74 71 67 72 80 80 79 80 80 80 81 79 80 83 83 82 81 79 78 77 75 74 72 69 67 65 64 64 64 64 65 65 66 68 71 75 77 79 82 82 82 83 84 83 79 76 71
68 69 69 70 71 71 72 73 72 72 74 76 77 77 79 79 78 77 77 81 83 81 82 83 81 81 81 80 82 84 84 83 82 80 79 77 76 74 72 69 67 65 64 65 65 65 66 66 67 69 73 77 80 82 84 84 84 84 84 82 78 74 68
69 70 71 72 73 74 75 75 74 74 76 79 80 80 81 82 82 83 84 85 85 84 85 85 84 83 82 82 84 86 85 84 82 81 80 78 76 74 71 69 66 65 65 66 66 66 67 68 70 72 75 78 81 83 85 85 85 85 84 82 77 70 65
70 71 72 73 74 75 76 76 76 76 78 80 81 82 83 83 84 85 87 87 87 87 87 87 86 85 84 85 87 87 86 85 83 81 79 77 75 74 72 69 67 66 66 66 67 69 70 71 74 76 79 81 82 84 85 86 86 84 83 80 73 66 61
72 72 73 74 75 76 76 77 79 79 80 81 82 82 84 85 86 87 88 89 89 89 89 88 87 87 87 88 89 88 88 86 84 81 78 75 73 72 70 69 69 68 67 68 70 71 72 75 77 79 81 83 85 86 86 87 86 83 79 75 68 62 56
73 74 75 76 76 77 78 79 80 81 82 82 83 83 85 86 87 87 89 90 91 91 91 89 88 88 89 90 90 90 89 87 84 81 78 75 72 68 68 70 73 71 70 71 72 73 75 78 80 82 84 85 87 88 88 87 86 81 75 68 62 56 51
75 76 77 77 78 79 79 80 81 82 83 83 83 84 85 86 87 88 90 90 91 92 92 91 89 89 90 93 94 92 90 87 84 80 77 74 71 69 70 72 74 74 73 74 74 76 78 80 82 84 87 88 89 89 89 88 84 77 69 61 55 51 46
78 78 78 79 79 80 80 82 83 82 82 84 85 85 86 86 88 89 90 91 91 92 92 91 90 90 92 95 94 91 89 86 82 78 76 73 72 73 72 72 74 75 75 75 76 78 81 83 85 86 89 91 90 89 88 87 82 74 65 57 50 46 42
78 78 79 80 80 81 82 82 82 82 84 84 84 84 85 87 89 90 92 92 91 90 91 92 92 93 94 95 92 90 88 85 81 78 75 73 72 73 72 73 75 76 76 77 78 79 82 85 87 88 90 91 90 88 85 83 78 71 62 55 47 43 39
76 78 80 81 82 82 82 82 83 84 83 81 80 83 87 89 89 90 91 92 92 90 91 93 95 96 95 93 90 89 88 84 81 78 75 73 73 72 72 74 77 78 79 80 81 82 84 86 88 90 90 89 88 86 81 77 73 66 58 51 45 40 36
80 81 82 83 82 82 82 83 84 84 82 82 83 86 89 89 89 89 91 92 92 91 91 93 95 96 94 92 91 90 87 83 80 76 74 74 75 74 75 77 78 80 81 82 83 85 86 87 89 90 90 88 86 81 76 72 68 61 54 48 43 38 33
83 83 84 84 83 83 83 83 82 82 84 85 86 86 88 90 91 91 90 89 91 93 95 95 95 94 93 92 91 88 83 80 77 74 74 75 75 76 78 78 79 81 84 85 86 87 88 89 89 88 88 85 79 75 73 70 63 56 50 45 40 36 32
85 84 84 84 84 84 84 83 82 84 87 88 88 90 91 90 91 90 89 90 94 97 98 96 94 94 94 93 90 85 81 77 75 74 74 76 77 78 81 81 81 83 86 88 89 88 89 89 88 86 85 81 75 72 71 65 58 52 47 42 37 33 29
84 82 81 82 83 86 88 87 86 88 90 90 91 90 87 86 89 90 92 96 99 99 97 96 95 95 94 91 87 83 79 77 75 75 77 78 79 80 83 85 86 86 87 89 90 90 89 89 86 84 81 76 72 69 65 58 53 49 44 39 35 31 29
80 79 79 82 87 90 91 90 89 91 92 91 89 88 89 92 95 96 97 98 98 97 97 97 96 94 92 88 84 80 78 78 78 79 80 81 82 83 85 87 90 89 88 89 91 91 90 88 86 82 77 71 67 63 58 53 50 46 41 37 33 30 29
77 79 81 85 88 90 91 91 93 94 93 91 91 93 96 99 100 100 101 100 98 99 99 98 95 92 89 86 82 80 79 80 81 82 83 84 86 87 88 89 92 92 91 91 91 90 88 86 83 79 73 67 62 57 52 49 46 43 38 34 30 28 28
80 83 86 87 88 89 92 94 95 94 93 96 99 100 100 100 101 102 103 102 100 99 98 96 92 90 88 85 83 82 82 84 85 86 87 88 89 90 91 91 93 94 93 92 91 89 85 82 80 75 70 64 59 53 49 45 41 39 36 32 28 26 26
85 87 90 91 92 94 95 96 96 97 99 103 104 103 102 102 102 103 103 102 101 98 96 92 90 88 87 87 86 85 86 88 89 90 91 91 91 93 93 93 94 94 93 90 88 86 83 79 75 71 66 61 56 52 47 42 38 35 34 31 27 25 24
91 93 95 97 97 96 97 98 100 102 104 105 105 105 104 104 103 103 103 101 98 96 93 90 88 87 88 88 88 88 90 91 92 93 93 93 93 94 95 94 93 92 90 87 84 82 79 75 71 66 62 57 53 50 46 41 36 33 31 30 27 24 23

ECMWFFLT1_250_spd_006.txt.gz
Wind_Speed
27 27 28 27 27 29 30 31 32 34 37 38 37 38 37 36 37 39 43 47 47 45 44 46 50 52 51 52 52 53 53 54 55 56 57 57 57 58 57 57 57 57 56 56 55 53 52 50 49 47 46 44 43 44 43 42 42 41 41 40 39 39 38
28 28 29 29 30 30 31 33 33 34 38 39 38 38 39 40 41 42 45 48 48 47 47 48 50 52 53 53 53 54 54 54 56 58 58 59 60 60 60 59 59 58 58 57 57 56 54 53 51 50 47 45 45 44 43 43 42 42 41 41 40 39 40
28 29 29 31 33 32 32 35 36 36 39 39 38 40 41 42 43 44 46 49 49 49 48 49 51 52 54 54 54 56 55 54 57 59 60 61 62 62 63 62 61 60 60 59 59 58 57 56 54 52 50 48 47 46 44 43 43 42 42 42 42 41 41
29 31 31 31 33 33 33 36 38 39 40 39 39 41 42 43 43 45 48 49 49 49 49 51 52 53 55 55 56 58 55 54 59 61 61 63 63 64 65 63 62 62 62 61 61 60 59 57 55 54 52 50 49 47 46 45 44 43 43 44 44 43 44
30 32 33 32 32 35 37 38 38 40 41 41 41 42 42 44 44 46 48 49 49 50 50 51 52 54 56 57 59 60 55 54 61 62 62 65 65 66 66 64 63 64 64 63 62 61 60 58 56 54 53 52 51 49 47 46 45 45 45 45 46 46 46
32 32 34 35 35 37 41 40 39 41 43 43 43 43 43 44 45 47 48 50 51 51 51 53 54 56 57 58 62 61 53 55 63 63 64 66 66 68 67 65 64 66 66 66 64 62 60 58 57 55 54 53 52 51 49 47 46 46 46 47 48 48 49
35 34 35 37 38 40 43 43 42 44 45 44 45 45 44 45 46 48 50 51 52 52 53 55 57 58 58 60 64 61 53 56 65 65 66 69 69 69 69 67 66 68 70 70 67 65 62 60 58 56 55 54 53 52 50 49 47 47 47 48 49 50 51
38 36 37 39 40 40 43 45 44 45 46 46 46 45 45 46 48 51 53 54 55 55 56 57 59 60 61 63 66 62 53 55 65 68 69 71 71 71 71 69 68 70 73 72 71 69 66 63 60 58 57 55 54 53 52 50 49 48 48 49 50 52 53
40 39 39 40 41 40 42 45 46 46 47 46 45 46 49 50 51 54 56 57 59 59 58 59 60 62 64 66 67 60 51 54 65 71 73 73 73 73 73 72 71 72 73 72 71 70 68 66 64 61 59 57 55 54 53 52 51 50 50 50 51 53 54
42 42 41 41 43 43 43 45 47 48 47 46 47 49 52 53 53 56 58 59 62 62 61 61 61 63 68 68 64 55 51 56 65 72 76 76 75 75 75 75 74 75 75 73 71 69 68 67 65 63 61 59 57 56 54 53 53 52 52 52 52 54 56
45 44 43 43 44 45 46 47 49 49 48 51 52 51 51 53 56 60 61 61 63 63 64 65 64 65 67 63 58 55 55 60 66 72 78 79 77 78 77 77 77 78 77 75 73 71 69 68 66 65 63 61 59 58 55 54 54 54 54 54 55 56 57
48 46 46 45 44 46 47 48 50 50 51 53 54 53 55 56 59 63 63 62 64 64 65 67 67 67 64 58 55 57 60 64 67 74 80 80 79 80 79 79 79 79 79 78 76 73 70 69 67 65 63 62 60 58 57 55 54 54 54 55 57 58 59
50 49 48 48 47 47 48 48 50 52 53 54 55 56 59 59 61 63 63 64 65 65 66 67 67 68 63 56 54 59 64 67 70 77 81 80 80 81 80 80 80 80 81 81 79 75 72 70 68 65 63 61 59 58 56 54 54 54 55 56 58 60 61
53 52 50 50 50 50 50 49 52 54 55 56 58 60 62 62 62 64 65 66 66 67 68 69 69 67 59 53 57 64 67 69 73 79 81 81 82 82 81 82 82 82 84 85 81 77 74 72 68 65 63 60 58 56 55 55 55 55 55 57 59 61 63
54 54 54 53 52 52 52 52 54 56 57 58 60 62 63 63 65 67 66 65 67 70 71 72 71 63 55 56 65 70 70 72 77 81 81 82 84 83 82 83 83 85 87 86 81 78 76 73 68 65 63 60 57 55 55 57 57 56 56 57 60 62 64
55 56 57 57 55 55 55 56 56 58 59 60 63 65 65 67 69 67 63 65 71 74 76 76 68 56 55 64 72 75 76 78 80 82 83 84 85 84 84 84 85 87 88 85 81 78 76 71 66 64 62 59 57 56 56 58 59 58 58 59 61 63 65
57 56 57 59 59 58 58 58 58 59 60 60 63 67 68 69 67 62 62 70 75 78 80 74 60 56 64 71 75 78 81 81 81 83 85 86 86 86 84 84 86 88 87 83 80 79 76 69 65 63 60 58 58 58 58 59 60 60 60 61 63 65 68
59 59 59 60 60 60 61 60 59 59 60 60 63 65 65 66 64 62 67 75 79 82 79 67 61 68 74 74 77 83 84 82 83 85 86 87 88 86 83 83 87 89 86 84 82 81 76 67 63 62 61 61 61 60 59 60 61 61 62 64 66 68 70
61 61 62 62 62 61 61 62 61 60 61 61 61 59 59 63 66 67 72 77 80 79 69 61 66 73 72 72 80 87 85 83 85 86 87 89 89 84 81 83 89 90 88 86 85 82 74 67 65 65 64 64 63 61 60 60 62 63 64 66 69 71 72
63 63 64 65 65 63 62 64 63 62 61 63 61 57 57 63 68 72 75 75 73 67 60 60 66 70 70 76 86 88 86 86 87 87 88 88 86 81 80 85 92 93 91 89 86 82 76 72 70 67 64 62 62 62 62 62 64 66 66 68 72 73 74
65 66 66 66 67 67 65 65 65 63 62 64 64 61 60 63 69 72 68 61 58 58 58 60 65 70 76 83 88 89 88 88 89 88 88 88 85 81 82 89 95 94 93 91 87 84 81 76 71 66 62 61 62 64 65 66 68 69 70 72 74 75 75
67 68 68 68 69 69 68 67 66 64 64 65 67 67 66 66 66 59 49 46 53 60 63 65 71 76 80 85 90 90 88 89 90 90 89 88 85 82 86 94 96 94 93 92 89 86 82 75 69 65 63 63 65 67 69 70 71 72 73 74 75 75 74
67 69 70 70 70 70 70 70 68 67 68 67 66 67 65 63 61 55 52 55 61 66 70 74 76 77 81 88 91 89 88 89 91 90 89 88 83 83 91 98 97 94 94 92 88 85 80 72 68 68 67 68 70 72 73 74 75 75 75 75 75 74 72
69 70 71 71 70 70 70 69 68 69 68 65 64 64 62 61 62 64 62 59 57 60 66 71 74 78 85 90 89 87 89 91 91 90 89 86 83 88 96 100 98 96 94 90 87 83 75 69 70 72 72 72 75 77 78 79 79 77 76 76 76 74 71
71 70 71 71 70 69 68 67 68 68 67 67 67 61 55 57 64 66 61 56 55 58 63 69 76 83 87 89 89 89 91 92 92 91 89 86 87 94 100 102 100 97 93 90 86 77 70 70 74 75 75 77 79 80 80 80 79 79 79 79 80 78 73
72 70 71 71 70 69 69 70 70 68 69 72 67 56 52 58 65 65 63 60 59 61 67 74 80 83 84 87 89 90 93 95 93 90 88 87 91 99 103 102 100 97 93 88 79 71 70 74 77 77 78 80 81 81 83 84 84 84 83 82 82 80 76
71 71 71 70 69 70 72 72 72 71 71 67 59 53 55 58 58 57 57 59 62 67 74 79 80 80 83 87 89 92 97 98 95 90 87 89 96 103 104 103 100 96 90 81 74 73 78 80 80 79 81 82 82 83 86 88 89 88 85 82 80 78 74
71 70 70 69 70 71 70 68 69 68 65 60 54 52 52 53 54 56 58 62 69 74 77 81 80 80 84 89 92 96 100 99 94 89 87 93 102 106 105 103 100 94 87 80 78 80 83 82 81 82 82 83 84 84 85 86 86 85 83 80 78 75 70
71 71 70 68 69 69 65 63 62 60 59 59 56 53 56 62 65 67 68 71 75 76 79 81 80 82 88 93 96 99 100 95 87 84 91 101 106 106 106 104 98 90 86 83 81 82 82 83 83 83 83 84 86 86 85 85 84 81 79 77 74 70 65
73 72 71 69 68 69 67 64 62 63 64 63 60 61 67 71 71 72 75 76 77 78 80 80 82 87 94 97 98 101 96 86 81 88 101 108 108 106 105 101 94 87 84 83 82 82 83 85 86 86 86 87 87 87 87 85 82 78 75 72 69 65 61
74 75 74 71 70 72 72 69 67 66 64 63 64 68 71 71 72 76 79 80 79 80 81 83 89 95 98 100 102 99 88 81 89 102 109 109 106 105 102 97 91 86 83 83 84 85 85 86 87 88 88 88 88 88 86 83 80 76 72 68 64 61 58
75 76 74 71 71 71 71 69 68 67 64 64 66 67 67 70 77 82 83 82 81 82 85 90 95 98 99 101 98 89 82 87 101 111 111 108 106 103 99 95 91 87 85 85 86 87 87 88 89 90 90 90 89 87 83 80 77 73 68 64 60 57 55
74 75 73 72 68 63 61 62 63 64 64 66 67 68 71 78 83 85 84 83 83 86 91 95 98 99 99 96 88 82 86 98 107 110 109 107 104 100 96 94 91 88 88 88 88 89 90 91 91 91 91 90 87 83 80 77 74 70 65 61 56 53 50
72 72 70 65 58 54 57 63 67 70 70 71 75 79 81 80 80 82 85 87 90 94 97 99 100 100 98 94 91 93 99 106 107 107 106 104 100 96 93 93 92 91 91 91 91 91 92 93 93 92 89 86 83 80 78 76 72 67 62 57 53 49 46
71 69 63 56 53 57 62 67 70 74 78 81 85 85 82 79 82 87 91 94 97 99 100 101 102 101 99 99 100 102 105 106 106 104 102 99 96 93 92 92 94 94 94 94 94 94 94 93 91 87 84 81 80 79 77 74 69 64 58 53 49 46 42
70 68 66 65 67 72 75 75 76 80 85 88 88 87 87 88 92 95 98 100 101 101 102 102 101 100 101 103 103 104 105 104 103 100 97 94 93 92 92 93 95 95 95 95 94 93 93 90 86 83 81 80 80 78 74 70 66 61 55 50 46 42 38
73 73 73 75 78 80 82 84 86 88 91 91 91 92 95 96 98 100 101 102 102 103 103 103 102 103 105 105 104 103 103 102 99 95 92 91 92 92 93 94 95 95 95 95 94 92 89 87 85 84 82 81 79 76 71 67 63 58 52 48 44 40 36
79 78 78 79 81 82 84 87 89 90 91 92 93 95 98 99 100 102 102 102 102 102 104 105 106 107 106 105 104 103 101 99 97 93 90 90 91 93 94 95 95 95 96 95 93 90 87 86 85 84 82 79 77 73 68 64 60 56 50 46 42 39 35

ECMWFFLT1_250_spd_009.txt.gz
Wind_Speed
21 22 24 26 27 28 30 30 30 30 30 30 32 34 36 37 37 38 39 39 38 38 39 41 43 46 48 50 51 52 53 55 56 56 56 58 59 56 51 47 52 61 64 67 68 68 70 69 67 66 65 65 65 62 59 55 52 49 47 45 43 42 41
26 25 25 27 29 29 31 32 33 33 33 33 35 37 38 38 38 39 40 41 40 38 40 43 45 48 50 52 52 53 55 56 57 57 57 59 59 55 49 47 53 61 64 67 70 71 72 71 69 68 68 69 68 66 62 57 54 51 49 47 45 43 42
30 29 29 29 31 32 32 33 35 35 35 36 38 39 39 40 40 41 42 42 41 40 43 47 48 49 52 55 54 54 56 57 58 58 58 59 57 52 49 50 55 61 64 67 71 73 73 73 71 69 70 72 71 69 65 60 56 53 50 48 46 44 43
34 32 32 33 33 34 34 35 36 37 37 38 39 40 41 42 43 43 43 42 42 43 47 49 49 51 55 57 56 56 57 57 57 59 60 59 56 52 51 54 58 62 64 67 72 74 74 74 71 70 73 75 74 71 67 63 60 56 52 49 46 44 43
35 34 34 34 35 36 36 37 38 38 39 39 40 41 42 44 44 44 44 44 45 47 48 49 50 53 56 58 58 58 58 58 59 60 61 60 55 51 50 54 59 63 65 68 72 73 75 75 70 69 75 76 75 73 70 68 66 61 56 50 46 44 43
37 36 35 35 36 37 38 39 39 39 40 40 41 42 43 45 45 46 46 47 48 50 50 51 53 55 57 57 58 59 58 59 61 62 63 62 54 48 48 53 59 64 67 69 71 73 76 74 68 69 76 78 77 76 74 72 70 65 58 52 48 46 44
40 39 38 37 38 39 40 41 41 41 42 42 43 43 44 46 47 47 48 49 50 51 52 54 55 58 58 57 59 59 57 60 63 63 65 62 53 45 46 52 57 64 69 70 72 76 78 75 70 71 78 81 81 81 78 74 72 66 59 54 51 49 46
42 42 41 39 39 41 42 42 43 44 44 44 45 45 46 47 48 49 50 51 52 53 54 56 57 59 58 57 60 58 55 61 65 65 67 61 50 45 47 53 59 64 70 72 75 78 79 79 77 76 80 84 85 84 82 76 71 65 58 54 52 49 46
43 43 43 42 42 43 44 45 46 46 45 46 47 48 48 48 50 51 51 52 53 54 56 58 60 62 60 60 60 55 56 64 67 68 67 58 48 45 49 57 61 64 70 75 77 78 79 80 78 75 79 85 87 87 85 79 72 64 58 56 54 50 47
46 44 45 46 45 46 47 47 48 48 47 48 49 49 50 51 51 52 53 53 54 56 59 61 63 64 62 59 54 52 59 68 69 69 64 52 46 47 52 61 64 64 70 77 79 79 79 79 77 75 78 83 88 90 89 83 76 67 61 60 58 54 51
48 47 46 46 47 48 49 49 50 50 49 49 50 51 52 53 53 54 54 54 55 57 60 62 65 66 61 54 51 56 65 70 70 65 56 47 46 49 56 65 66 66 71 78 82 81 80 83 83 80 80 82 89 93 91 87 80 71 66 63 60 57 55
48 49 48 47 47 48 49 50 51 51 51 51 51 51 53 54 54 55 55 55 56 58 61 63 66 66 59 53 57 63 67 68 64 55 47 45 48 53 62 68 67 68 73 79 84 85 84 87 89 85 80 82 90 94 92 89 82 74 68 64 59 56 55
49 49 50 50 49 48 48 50 51 51 51 52 52 52 53 54 55 55 55 55 56 58 61 63 65 65 60 59 64 66 65 66 61 50 45 48 52 58 66 69 69 73 77 81 86 88 87 90 92 88 81 83 91 96 95 91 83 74 68 62 56 55 55
51 50 51 51 51 50 49 49 51 52 53 53 53 53 53 53 54 56 55 56 58 59 60 62 65 66 63 63 64 62 65 67 59 50 48 51 56 62 67 70 72 76 81 84 87 89 89 91 95 91 83 84 92 97 97 93 84 75 67 59 55 55 56
53 53 53 53 53 53 51 50 51 52 54 55 54 54 54 54 54 55 56 58 59 59 59 61 64 64 61 60 59 60 66 67 58 51 51 55 61 67 71 74 76 82 87 89 89 90 91 93 97 94 86 86 92 98 99 94 85 76 65 57 55 58 59
54 54 54 54 54 55 54 52 52 53 54 57 57 56 55 54 54 56 57 58 56 57 59 60 59 59 58 57 59 63 66 63 54 50 53 60 67 73 78 81 85 90 93 91 90 91 92 95 98 95 88 87 93 99 99 93 84 74 62 56 58 61 61
56 56 56 54 54 55 55 54 54 55 55 57 59 58 57 56 56 57 55 53 53 55 58 58 56 55 56 60 64 64 57 51 50 53 59 66 72 78 83 87 89 91 90 88 90 92 94 97 99 96 90 89 94 100 99 91 81 71 63 61 65 66 65
59 59 59 57 54 54 55 56 57 56 55 57 59 59 58 58 58 56 51 50 54 57 58 58 58 57 58 60 58 54 51 53 59 64 68 71 75 81 85 86 86 86 86 87 89 91 95 99 100 97 92 91 96 101 99 91 81 73 69 69 70 69 67
61 61 62 60 57 55 54 56 58 58 57 56 58 59 59 59 59 58 54 55 60 59 53 52 55 56 55 51 47 49 56 62 67 70 74 75 78 83 86 85 84 85 86 88 90 92 98 101 101 97 93 92 98 101 98 92 83 76 74 73 72 71 70
62 62 62 61 60 58 55 55 58 59 58 57 57 59 60 60 60 61 59 59 60 55 48 50 56 54 48 45 50 56 59 64 69 74 77 79 82 87 88 85 85 86 89 90 91 94 100 103 101 98 94 95 100 102 98 92 85 79 77 75 74 74 74
63 64 63 62 61 60 57 56 57 58 58 57 57 58 60 61 64 65 62 58 54 49 47 52 54 47 42 47 57 62 64 69 73 76 79 82 87 89 88 86 87 90 92 92 92 96 103 105 102 99 96 98 103 103 99 93 86 81 78 77 76 77 77
66 66 63 62 62 61 59 58 58 58 58 56 56 58 60 62 67 67 63 59 55 51 51 51 45 41 44 49 55 61 66 69 72 77 83 87 88 88 86 86 89 93 95 93 94 100 105 106 103 99 99 102 105 104 99 93 87 82 80 79 79 80 80
68 66 64 63 63 63 61 60 59 58 57 55 55 55 55 58 61 62 61 60 55 52 54 52 46 47 50 52 56 62 67 70 75 83 86 87 88 88 87 88 91 95 95 94 97 103 107 106 103 101 102 105 106 103 98 92 86 82 81 81 82 82 82
68 68 68 67 65 64 63 62 60 59 56 53 48 44 46 53 57 58 58 56 50 48 51 52 53 58 62 66 71 74 76 80 84 86 85 87 89 89 88 91 95 95 95 96 102 107 108 106 104 103 105 107 106 102 96 90 86 83 82 83 84 84 83
68 69 70 70 68 66 64 63 62 59 57 53 45 38 40 48 53 53 52 49 46 46 47 48 53 61 68 75 79 82 83 85 85 83 84 88 88 88 90 94 96 95 95 100 106 109 108 106 106 106 107 108 106 102 96 90 86 84 84 84 83 82 81
69 68 69 70 69 67 65 65 64 62 60 58 52 45 45 51 55 54 51 49 49 49 50 53 58 61 66 71 74 77 80 82 82 83 87 88 87 89 94 96 95 95 98 104 109 109 107 106 107 108 109 109 106 102 96 91 88 86 85 84 82 81 79
71 68 68 69 70 68 67 67 66 64 63 61 57 52 50 54 60 63 63 64 64 63 66 70 70 70 71 73 74 77 82 84 86 89 88 85 86 92 96 95 95 97 102 107 108 107 106 106 108 109 109 108 104 100 95 92 91 89 86 84 83 81 78
72 68 67 67 68 68 67 67 67 66 65 64 62 60 58 58 62 66 68 71 73 74 76 77 74 73 76 79 82 87 89 89 90 90 86 85 91 97 95 94 97 101 105 108 107 106 106 107 109 109 107 104 100 96 93 92 91 90 88 87 86 83 79
71 69 68 67 67 68 69 68 66 64 65 65 65 65 64 63 64 67 70 73 75 76 78 79 78 79 84 88 91 92 91 90 91 89 87 90 97 97 94 96 101 104 106 107 107 107 108 109 110 108 104 100 96 93 91 91 92 93 92 91 88 84 79
72 72 71 71 70 70 69 67 65 63 64 67 68 67 66 66 67 69 72 75 77 78 80 82 84 87 90 91 91 91 91 91 91 89 91 96 98 97 97 100 103 105 106 105 105 107 109 110 109 104 99 95 93 91 91 92 95 96 95 93 88 82 78
75 74 75 75 73 71 69 68 67 67 68 69 69 68 69 71 72 72 73 75 78 81 83 85 87 88 87 86 86 88 89 89 89 91 95 99 99 98 100 103 105 107 106 104 104 106 108 107 104 99 95 93 92 91 92 95 98 98 96 91 86 81 77
77 76 75 76 75 74 72 71 70 70 70 71 71 73 75 75 73 73 74 76 79 80 82 83 85 84 81 79 80 82 84 87 91 96 99 99 99 100 103 105 107 107 105 104 105 106 105 102 99 95 93 92 92 93 96 99 99 97 93 87 83 79 75
79 79 79 79 79 78 76 75 73 72 71 71 72 75 75 74 73 72 73 74 76 77 78 80 82 82 79 78 80 83 87 92 97 99 99 99 101 103 106 107 106 105 104 105 105 104 101 98 95 92 91 91 94 98 100 101 99 94 89 85 81 78 72
81 82 82 82 82 80 77 75 72 70 69 69 70 71 71 71 71 70 69 70 72 73 75 78 82 83 82 82 84 88 93 96 98 99 100 102 104 106 107 105 104 103 103 104 103 101 98 94 91 90 91 94 99 102 102 99 96 91 87 84 80 75 69
81 81 81 80 79 77 75 72 71 71 71 71 72 72 72 71 69 68 71 75 77 78 79 81 83 83 82 84 88 93 95 97 98 99 101 104 106 106 104 101 100 101 101 101 99 95 92 90 91 94 98 101 103 103 100 97 94 90 87 83 78 72 66
79 78 77 77 76 76 76 76 76 76 76 76 76 77 76 75 72 72 74 76 75 75 77 78 79 81 85 89 93 95 96 96 97 99 102 104 103 100 98 97 97 98 97 95 91 88 88 91 96 101 104 105 104 101 99 96 93 88 85 80 75 69 64
77 77 77 78 79 79 79 79 78 77 76 76 76 76 76 74 72 71 73 74 74 76 79 82 85 90 94 96 95 95 95 96 99 102 103 100 95 92 93 94 94 93 91 89 88 89 92 97 102 106 107 105 104 102 99 95 90 86 81 76 70 65 61
77 77 78 79 78 77 77 76 76 76 76 75 75 74 74 73 72 74 78 82 84 86 89 92 94 96 97 97 96 96 97 99 100 100 96 91 89 90 92 93 92 91 90 90 92 94 98 103 107 109 108 106 104 101 96 92 87 81 76 70 65 62 58